GLO1007 SBRJ-SBSP

Flight info

Callsign GLO1007
Flight time 0h 43m
Altitude 32000
Route NAXOP UZ45 IBDAL
Aircraft B737/M-SDE2E3FGHIRWXY/LB1

Departure

Time 2026-05-06 23:13
Airport Santos Dumont Airport (SBRJ)

Arrival

Time 2026-05-06 23:56
Airport Congonhas–Deputado Freitas Nobre Airport (SBSP)
Time Latitude Longitude Altitude Speed Heading
2026-05-06 23:02 -22.91279 -43.16509 21 ft 0 kts 356°
2026-05-06 23:03 -22.91278 -43.16509 21 ft 0 kts 356°
2026-05-06 23:03 -22.91268 -43.16509 21 ft 3 kts 356°
2026-05-06 23:04 -22.91252 -43.16510 22 ft 1 kts 357°
2026-05-06 23:04 -22.91234 -43.16511 21 ft 4 kts 357°
2026-05-06 23:04 -22.91197 -43.16513 22 ft 7 kts 357°
2026-05-06 23:04 -22.91142 -43.16519 21 ft 9 kts 354°
2026-05-06 23:05 -22.91073 -43.16530 21 ft 11 kts 349°
2026-05-06 23:05 -22.90989 -43.16542 21 ft 13 kts 356°
2026-05-06 23:05 -22.90907 -43.16546 21 ft 6 kts 358°
2026-05-06 23:05 -22.90854 -43.16549 21 ft 9 kts 358°
2026-05-06 23:06 -22.90784 -43.16552 23 ft 11 kts 358°
2026-05-06 23:06 -22.90700 -43.16551 21 ft 13 kts
2026-05-06 23:06 -22.90602 -43.16552 24 ft 9 kts 357°
2026-05-06 23:06 -22.90563 -43.16555 21 ft 7 kts 356°
2026-05-06 23:07 -22.90525 -43.16558 21 ft 3 kts 357°
2026-05-06 23:07 -22.90503 -43.16539 21 ft 5 kts 62°
2026-05-06 23:07 -22.90499 -43.16509 21 ft 0 kts 86°
2026-05-06 23:11 -22.90498 -43.16496 21 ft 3 kts 86°
2026-05-06 23:11 -22.90495 -43.16453 22 ft 8 kts 86°
2026-05-06 23:11 -22.90483 -43.16386 26 ft 11 kts 70°
2026-05-06 23:12 -22.90468 -43.16342 24 ft 4 kts 69°
2026-05-06 23:12 -22.90469 -43.16320 23 ft 0 kts 134°
2026-05-06 23:12 -22.90473 -43.16320 23 ft 0 kts 175°
2026-05-06 23:12 -22.90484 -43.16319 25 ft 11 kts 175°
2026-05-06 23:13 -22.90913 -43.16292 22 ft 112 kts 176°
2026-05-06 23:13 -22.91920 -43.16200 362 ft 161 kts 172°
2026-05-06 23:13 -22.93016 -43.15924 1425 ft 164 kts 146°
2026-05-06 23:13 -22.93832 -43.15087 2464 ft 170 kts 130°
2026-05-06 23:14 -22.94428 -43.14446 2843 ft 195 kts 134°
2026-05-06 23:14 -22.95510 -43.13332 3355 ft 228 kts 134°
2026-05-06 23:14 -22.96675 -43.12123 4399 ft 235 kts 134°
2026-05-06 23:14 -22.97879 -43.10920 5595 ft 237 kts 135°
2026-05-06 23:15 -22.99293 -43.09965 6643 ft 248 kts 166°
2026-05-06 23:15 -23.01035 -43.10070 7535 ft 265 kts 200°
2026-05-06 23:15 -23.02667 -43.11197 8166 ft 289 kts 220°
2026-05-06 23:15 -23.04189 -43.12649 9103 ft 299 kts 221°
2026-05-06 23:16 -23.05750 -43.14137 10233 ft 302 kts 220°
2026-05-06 23:16 -23.07384 -43.15657 10931 ft 320 kts 219°
2026-05-06 23:16 -23.09195 -43.17271 11233 ft 350 kts 218°
2026-05-06 23:16 -23.11121 -43.18949 12091 ft 355 kts 218°
2026-05-06 23:17 -23.13061 -43.20630 13119 ft 358 kts 218°
2026-05-06 23:17 -23.15027 -43.22336 14017 ft 364 kts 218°
2026-05-06 23:17 -23.17016 -43.24065 14826 ft 368 kts 218°
2026-05-06 23:17 -23.19023 -43.25811 15707 ft 370 kts 218°
2026-05-06 23:18 -23.21040 -43.27570 16588 ft 373 kts 218°
2026-05-06 23:18 -23.23069 -43.29341 17474 ft 375 kts 218°
2026-05-06 23:18 -23.25114 -43.31127 18339 ft 377 kts 217°
2026-05-06 23:18 -23.27167 -43.32919 19073 ft 381 kts 217°
2026-05-06 23:19 -23.29234 -43.34726 19802 ft 384 kts 218°
2026-05-06 23:19 -23.31329 -43.36558 20465 ft 388 kts 218°
2026-05-06 23:19 -23.33155 -43.38680 21191 ft 391 kts 236°
2026-05-06 23:19 -23.34334 -43.41330 22128 ft 391 kts 251°
2026-05-06 23:20 -23.35080 -43.44185 22814 ft 396 kts 254°
2026-05-06 23:20 -23.35751 -43.47142 23290 ft 405 kts 256°
2026-05-06 23:20 -23.36399 -43.50123 24007 ft 405 kts 255°
2026-05-06 23:20 -23.37055 -43.53113 24609 ft 408 kts 255°
2026-05-06 23:21 -23.37734 -43.56142 25104 ft 413 kts 255°
2026-05-06 23:21 -23.38433 -43.59194 25546 ft 419 kts 254°
2026-05-06 23:21 -23.39148 -43.62284 26112 ft 421 kts 254°
2026-05-06 23:21 -23.39861 -43.65343 26663 ft 423 kts 254°
2026-05-06 23:22 -23.40588 -43.68458 27209 ft 425 kts 253°
2026-05-06 23:22 -23.41317 -43.71584 27729 ft 427 kts 253°
2026-05-06 23:22 -23.42053 -43.74740 28246 ft 430 kts 253°
2026-05-06 23:22 -23.42787 -43.77894 28892 ft 428 kts 253°
2026-05-06 23:23 -23.43513 -43.81023 29748 ft 422 kts 253°
2026-05-06 23:23 -23.44225 -43.84097 30576 ft 416 kts 252°
2026-05-06 23:23 -23.44933 -43.87147 31258 ft 413 kts 252°
2026-05-06 23:23 -23.45636 -43.90176 31841 ft 412 kts 252°
2026-05-06 23:24 -23.46338 -43.93205 32130 ft 414 kts 252°
2026-05-06 23:24 -23.47743 -43.99283 32146 ft 412 kts 252°
2026-05-06 23:25 -23.49139 -44.05333 32156 ft 412 kts 251°
2026-05-06 23:25 -23.50533 -44.11385 32150 ft 412 kts 251°
2026-05-06 23:26 -23.51916 -44.17402 32146 ft 412 kts 252°
2026-05-06 23:26 -23.53308 -44.23463 32146 ft 411 kts 251°
2026-05-06 23:27 -23.54692 -44.29499 32146 ft 410 kts 251°
2026-05-06 23:27 -23.56069 -44.35520 32146 ft 409 kts 251°
2026-05-06 23:28 -23.57442 -44.41530 32149 ft 408 kts 251°
2026-05-06 23:28 -23.58809 -44.47530 32149 ft 407 kts 251°
2026-05-06 23:29 -23.60164 -44.53487 32146 ft 407 kts 251°
2026-05-06 23:29 -23.61526 -44.59483 32151 ft 407 kts 251°
2026-05-06 23:30 -23.62887 -44.65490 32143 ft 407 kts 251°
2026-05-06 23:30 -23.64242 -44.71483 32146 ft 406 kts 251°
2026-05-06 23:31 -23.65591 -44.77461 32148 ft 406 kts 251°
2026-05-06 23:31 -23.66939 -44.83444 32142 ft 406 kts 251°
2026-05-06 23:32 -23.68275 -44.89382 32144 ft 405 kts 251°
2026-05-06 23:32 -23.69615 -44.95355 32148 ft 405 kts 251°
2026-05-06 23:33 -23.70953 -45.01329 32149 ft 405 kts 251°
2026-05-06 23:33 -23.72288 -45.07299 32146 ft 405 kts 251°
2026-05-06 23:34 -23.73624 -45.13283 31638 ft 410 kts 251°
2026-05-06 23:34 -23.74298 -45.16306 31032 ft 408 kts 252°
2026-05-06 23:34 -23.74954 -45.19260 30520 ft 403 kts 252°
2026-05-06 23:34 -23.75612 -45.22224 29923 ft 400 kts 252°
2026-05-06 23:35 -23.76266 -45.25171 29283 ft 397 kts 252°
2026-05-06 23:35 -23.76910 -45.28087 28665 ft 393 kts 252°
2026-05-06 23:35 -23.77546 -45.30967 28074 ft 388 kts 252°
2026-05-06 23:35 -23.78175 -45.33817 27518 ft 384 kts 252°
2026-05-06 23:36 -23.78799 -45.36646 26957 ft 382 kts 253°
2026-05-06 23:36 -23.79418 -45.39455 26395 ft 379 kts 253°
2026-05-06 23:36 -23.79915 -45.42277 25959 ft 378 kts 260°
2026-05-06 23:36 -23.80124 -45.45140 25609 ft 380 kts 263°
2026-05-06 23:37 -23.80247 -45.48023 25235 ft 390 kts 264°
2026-05-06 23:37 -23.80353 -45.50998 24854 ft 394 kts 264°
2026-05-06 23:37 -23.80464 -45.53980 24468 ft 392 kts 264°
2026-05-06 23:37 -23.80586 -45.56948 24083 ft 390 kts 264°
2026-05-06 23:38 -23.80720 -45.59908 23703 ft 389 kts 264°
2026-05-06 23:38 -23.80862 -45.62850 23264 ft 387 kts 264°
2026-05-06 23:38 -23.81007 -45.65779 22872 ft 385 kts 264°
2026-05-06 23:38 -23.81153 -45.68688 22492 ft 383 kts 264°
2026-05-06 23:39 -23.81299 -45.71585 22116 ft 381 kts 264°
2026-05-06 23:39 -23.81444 -45.74471 21750 ft 380 kts 264°
2026-05-06 23:39 -23.81589 -45.77345 21395 ft 378 kts 264°
2026-05-06 23:39 -23.81733 -45.80216 21030 ft 378 kts 264°
2026-05-06 23:40 -23.81875 -45.83070 20668 ft 377 kts 264°
2026-05-06 23:40 -23.82017 -45.85931 20308 ft 377 kts 265°
2026-05-06 23:40 -23.82159 -45.88792 19945 ft 376 kts 265°
2026-05-06 23:40 -23.82298 -45.91606 19595 ft 376 kts 265°
2026-05-06 23:41 -23.82438 -45.94460 19225 ft 376 kts 265°
2026-05-06 23:41 -23.82577 -45.97318 18859 ft 376 kts 265°
2026-05-06 23:41 -23.82716 -46.00164 18483 ft 375 kts 265°
2026-05-06 23:41 -23.82853 -46.03000 18086 ft 371 kts 265°
2026-05-06 23:42 -23.82988 -46.05796 17708 ft 366 kts 265°
2026-05-06 23:42 -23.83121 -46.08561 17345 ft 362 kts 265°
2026-05-06 23:42 -23.83253 -46.11303 17000 ft 361 kts 265°
2026-05-06 23:42 -23.83384 -46.14040 16655 ft 360 kts 266°
2026-05-06 23:43 -23.83514 -46.16762 16306 ft 359 kts 266°
2026-05-06 23:43 -23.83643 -46.19482 15963 ft 358 kts 266°
2026-05-06 23:43 -23.83771 -46.22192 15624 ft 357 kts 266°
2026-05-06 23:43 -23.83898 -46.24864 15270 ft 357 kts 266°
2026-05-06 23:44 -23.84028 -46.27570 14941 ft 356 kts 266°
2026-05-06 23:44 -23.84158 -46.30308 14591 ft 356 kts 266°
2026-05-06 23:44 -23.84283 -46.32970 14253 ft 356 kts 266°
2026-05-06 23:44 -23.84409 -46.35670 13902 ft 356 kts 267°
2026-05-06 23:45 -23.84535 -46.38376 13531 ft 354 kts 267°
2026-05-06 23:45 -23.84659 -46.41028 13181 ft 346 kts 267°
2026-05-06 23:45 -23.84779 -46.43627 12852 ft 340 kts 267°
2026-05-06 23:45 -23.84899 -46.46199 12519 ft 338 kts 267°
2026-05-06 23:46 -23.85017 -46.48762 12198 ft 336 kts 268°
2026-05-06 23:46 -23.85134 -46.51305 11880 ft 335 kts 268°
2026-05-06 23:46 -23.85250 -46.53832 11573 ft 332 kts 268°
2026-05-06 23:46 -23.85364 -46.56345 11257 ft 330 kts 268°
2026-05-06 23:47 -23.85478 -46.58843 10934 ft 327 kts 269°
2026-05-06 23:47 -23.85213 -46.61256 10603 ft 317 kts 291°
2026-05-06 23:47 -23.84166 -46.63271 10334 ft 305 kts 311°
2026-05-06 23:47 -23.82614 -46.64767 10151 ft 291 kts 328°
2026-05-06 23:48 -23.80952 -46.65920 9935 ft 281 kts 329°
2026-05-06 23:48 -23.79279 -46.67057 9527 ft 280 kts 329°
2026-05-06 23:48 -23.77647 -46.68172 9391 ft 274 kts 329°
2026-05-06 23:48 -23.76031 -46.69281 9276 ft 274 kts 329°
2026-05-06 23:49 -23.74422 -46.70394 9241 ft 273 kts 329°
2026-05-06 23:49 -23.72819 -46.71504 9238 ft 273 kts 329°
2026-05-06 23:49 -23.71206 -46.72622 9074 ft 278 kts 328°
2026-05-06 23:49 -23.69561 -46.73763 8761 ft 280 kts 328°
2026-05-06 23:50 -23.67929 -46.74896 8359 ft 276 kts 328°
2026-05-06 23:50 -23.64776 -46.77081 7645 ft 267 kts 329°
2026-05-06 23:50 -23.63196 -46.78174 7345 ft 270 kts 329°
2026-05-06 23:51 -23.61590 -46.79286 7046 ft 271 kts 329°
2026-05-06 23:51 -23.60019 -46.80374 6751 ft 270 kts 329°
2026-05-06 23:51 -23.58330 -46.81156 6485 ft 259 kts 354°
2026-05-06 23:51 -23.56628 -46.80984 6385 ft 238 kts 21°
2026-05-06 23:52 -23.55236 -46.80147 6241 ft 220 kts 40°
2026-05-06 23:52 -23.54265 -46.78959 6099 ft 200 kts 56°
2026-05-06 23:52 -23.53511 -46.77707 5719 ft 198 kts 58°
2026-05-06 23:52 -23.52771 -46.76440 5306 ft 197 kts 58°
2026-05-06 23:53 -23.52060 -46.75200 5027 ft 189 kts 63°
2026-05-06 23:53 -23.51907 -46.73871 4819 ft 178 kts 111°
2026-05-06 23:53 -23.52683 -46.72809 4666 ft 184 kts 137°
2026-05-06 23:53 -23.53662 -46.71946 4462 ft 178 kts 140°
2026-05-06 23:54 -23.54659 -46.71187 4233 ft 170 kts 144°
2026-05-06 23:54 -23.55595 -46.70537 4038 ft 149 kts 144°
2026-05-06 23:54 -23.56414 -46.69972 3865 ft 132 kts 144°
2026-05-06 23:54 -23.57173 -46.69447 3735 ft 128 kts 144°
2026-05-06 23:55 -23.57920 -46.68930 3584 ft 130 kts 144°
2026-05-06 23:55 -23.58679 -46.68404 3417 ft 129 kts 144°
2026-05-06 23:55 -23.59436 -46.67879 3234 ft 129 kts 145°
2026-05-06 23:55 -23.60197 -46.67353 3068 ft 129 kts 146°
2026-05-06 23:56 -23.60953 -46.66831 2892 ft 128 kts 147°
2026-05-06 23:56 -23.61698 -46.66315 2716 ft 128 kts 147°
2026-05-06 23:56 -23.62431 -46.65804 2603 ft 115 kts 147°
2026-05-06 23:56 -23.62885 -46.65492 2607 ft 40 kts 147°
2026-05-06 23:57 -23.63011 -46.65405 2609 ft 16 kts 151°
2026-05-06 23:57 -23.63121 -46.65372 2608 ft 18 kts 187°
2026-05-06 23:57 -23.63185 -46.65411 2602 ft 5 kts 251°
2026-05-06 23:57 -23.63160 -46.65449 2601 ft 8 kts 326°
2026-05-06 23:58 -23.63098 -46.65494 2601 ft 13 kts 327°
2026-05-06 23:58 -23.63003 -46.65527 2602 ft 16 kts 345°
2026-05-06 23:58 -23.62925 -46.65575 2602 ft 0 kts 328°
2026-05-06 23:58 -23.62913 -46.65584 2602 ft 4 kts 328°
2026-05-06 23:59 -23.62873 -46.65612 2602 ft 10 kts 327°
2026-05-06 23:59 -23.62802 -46.65662 2602 ft 15 kts 327°
2026-05-06 23:59 -23.62722 -46.65716 2601 ft 14 kts 328°
2026-05-06 23:59 -23.62646 -46.65769 2601 ft 4 kts 328°
2026-05-07 00:00 -23.62622 -46.65798 2600 ft 6 kts 277°
2026-05-07 00:00 -23.62646 -46.65844 2600 ft 7 kts 237°
2026-05-07 00:00 -23.62653 -46.65856 2600 ft 1 kts 237°
2026-05-07 00:00 -23.62656 -46.65861 2600 ft 1 kts 237°
2026-05-07 00:01 -23.62658 -46.65865 2599 ft 0 kts 237°